Location: Limoges
(45.8354°N, 1.2645°E)
Time: 03:41:49
(UTC+02:00)

Vanguard 3 - Visible Passes

Search period start: 12 September 2024 00:00
Search period end: 22 September 2024 00:00
Orbit: 507 x 3226 km, 33.3° (Epoch: 10 September)

Date Brightness Start Highest point End Pass type
(mag) Time Alt. Az. Time Alt. Az. Time Alt. Az.
13 Sep 11.5 06:21:13 10° SSE 06:31:27 17° SE 06:41:38 10° ESE visible
15 Sep 11.3 05:52:48 10° S 06:03:17 18° SE 06:14:10 10° E visible
16 Sep 11.2 06:40:59 10° SSW 06:55:19 30° SE 07:10:06 10° E visible
17 Sep 11.2 05:24:40 10° S 05:35:03 19° SE 05:46:20 10° E visible
18 Sep 11.0 06:13:02 10° SSW 06:26:56 30° SE 06:42:10 10° E visible
19 Sep 11.0 04:56:47 10° S 05:06:48 19° SE 05:18:10 10° E visible
19 Sep 10.9 07:03:29 10° SW 07:19:19 41° SSE 07:36:17 10° E visible
20 Sep 10.9 05:45:18 10° SSW 05:58:31 31° SE 06:13:58 10° E visible
21 Sep 10.9 04:29:07 10° S 04:38:34 19° SE 04:49:44 10° E visible
21 Sep 10.8 06:35:44 10° SW 06:50:46 42° SSE 07:08:09 10° E visible
